This is the latest recevied weather packets stored in our database for station/object AB2HM. If no packets are shown the sender has not sent any weather packets the latest 10 day(s).
| Time | Temp. | Humidity | Pressure | Rain* | Wind** | Luminosity | Snow |
|---|---|---|---|---|---|---|---|
| 1788072813 | 16.67° C | 89% | 1024.9 hPa | 0 mm | - | - | - |
| 1788070998 | 17.22° C | 89% | 1025 hPa | 0 mm | - | - | - |
| 1788069198 | 17.22° C | 89% | 1025 hPa | 0 mm | - | - | - |
| 1788067392 | 17.22° C | 88% | 1025.1 hPa | 0 mm | - | - | - |
| 1788065561 | 17.22° C | 87% | 1024.8 hPa | 0 mm | - | - | - |
| 1788063759 | 17.78° C | 85% | 1024.8 hPa | 0 mm | - | - | - |
| 1788061955 | 18.33° C | 84% | 1024.5 hPa | 0 mm | - | - | - |
| 1788060149 | 18.89° C | 82% | 1024.4 hPa | 0 mm | - | - | - |
| 1788058348 | 18.89° C | 81% | 1024.4 hPa | 0 mm | - | - | - |
| 1788056544 | 19.44° C | 78% | 1024.4 hPa | 0 mm | - | - | - |
| 1788054724 | 19.44° C | 76% | 1024.4 hPa | 0 mm | - | - | - |
| 1788052926 | 20° C | 73% | 1024.4 hPa | 0 mm | - | - | - |
| 1788051124 | 21.11° C | 68% | 1023.8 hPa | 0 mm | - | - | - |
| 1788049306 | 22.22° C | 65% | 1023.6 hPa | 0 mm | - | - | - |
| 1788047482 | 23.33° C | 58% | 1023.9 hPa | 0 mm | - | - | - |
| 1788045684 | 25° C | 50% | 1023.9 hPa | 0 mm | - | - | - |
| 1788043872 | 26.11° C | 44% | 1023.8 hPa | 0 mm | - | - | - |
| 1788042067 | 26.67° C | 42% | 1023.6 hPa | 0 mm | - | - | - |
| 1788040264 | 27.22° C | 41% | 1023.5 hPa | 0 mm | - | - | - |
| 1788038447 | 28.33° C | 39% | 1023.4 hPa | 0 mm | - | - | - |
| 1788036627 | 27.78° C | 38% | 1023.9 hPa | 0 mm | - | - | - |
| 1788034815 | 28.33° C | 37% | 1024.3 hPa | 0 mm | - | - | - |
| 1788033013 | 27.22° C | 38% | 1024.6 hPa | 0 mm | - | - | - |
| 1788031212 | 28.33° C | 37% | 1024.6 hPa | 0 mm | - | - | - |
| 1788029407 | 28.33° C | 37% | 1024.9 hPa | 0 mm | - | - | - |
* Rain latest hour (hover to see other rain measurements)
** Current wind speed in m/s (hover to see current wind gust speed)